When you browse on this site, cookies collect data to enhance your experience and personalize the content and advertising you see.
Visit our Privacy Policy to learn more. By continuing to use the site, you agree to this use of cookies and data.

Stündliche Wetter Bolshie Negnovichi

Heute, 23 September, Mittwoch

Zeit Temperatur Niederschläge Wind Luftdruck Luftfeuchtigkeit
00:00 +13°C° 0 mm 2 m/S 745 mmHg 90%
01:00 +13°C° 0 mm 2 m/S 745 mmHg 91%
02:00 +13°C° 0 mm 2 m/S 745 mmHg 90%
03:00 +12°C° 0 mm 2 m/S 745 mmHg 90%
04:00 +12°C° 0 mm 2 m/S 745 mmHg 91%
05:00 +12°C° 0 mm 2 m/S 745 mmHg 91%
06:00 +13°C° 0 mm 2 m/S 745 mmHg 87%
07:00 +14°C° 0 mm 2 m/S 745 mmHg 83%
08:00 +15°C° 0 mm 2 m/S 745 mmHg 77%
09:00 +17°C° 0 mm 3 m/S 745 mmHg 71%
10:00 +18°C° 0 mm 3 m/S 745 mmHg 66%
11:00 +20°C° 0 mm 3 m/S 745 mmHg 61%
12:00 +21°C° 0 mm 4 m/S 745 mmHg 56%
13:00 +22°C° 0 mm 4 m/S 745 mmHg 51%
14:00 +23°C° 0 mm 4 m/S 745 mmHg 48%
15:00 +22°C° 0 mm 4 m/S 744 mmHg 52%
16:00 +21°C° 0 mm 3 m/S 744 mmHg 56%
17:00 +19°C° 0 mm 3 m/S 743 mmHg 61%
18:00 +18°C° 0 mm 3 m/S 744 mmHg 62%
19:00 +16°C° 0 mm 3 m/S 744 mmHg 64%
20:00 +14°C° 0 mm 3 m/S 744 mmHg 66%
21:00 +13°C° 0 mm 3 m/S 744 mmHg 66%
22:00 +13°C° 0 mm 3 m/S 744 mmHg 67%
23:00 +12°C° 0 mm 3 m/S 743 mmHg 67%

Morgen, 24 September, Donnerstag

Zeit Temperatur Niederschläge Wind Luftdruck Luftfeuchtigkeit
00:00 +12°C° 0 mm 3 m/S 744 mmHg 67%
01:00 +11°C° 0 mm 3 m/S 744 mmHg 67%
02:00 +12°C° 0 mm 2 m/S 744 mmHg 67%
03:00 +10°C° 0 mm 3 m/S 744 mmHg 67%
04:00 +10°C° 0 mm 3 m/S 744 mmHg 66%
05:00 +9°C° 0 mm 3 m/S 744 mmHg 66%
06:00 +10°C° 0 mm 3 m/S 744 mmHg 64%
07:00 +11°C° 0 mm 3 m/S 743 mmHg 61%
08:00 +12°C° 0 mm 3 m/S 743 mmHg 59%
09:00 +14°C° 0 mm 3 m/S 744 mmHg 56%
10:00 +16°C° 0 mm 3 m/S 744 mmHg 52%
11:00 +18°C° 0 mm 4 m/S 744 mmHg 49%
12:00 +19°C° 0 mm 4 m/S 744 mmHg 47%
13:00 +20°C° 0 mm 4 m/S 744 mmHg 45%
14:00 +21°C° 0 mm 4 m/S 744 mmHg 43%
15:00 +20°C° 0 mm 4 m/S 744 mmHg 49%
16:00 +19°C° 0 mm 3 m/S 743 mmHg 54%
17:00 +18°C° 0 mm 3 m/S 743 mmHg 60%
18:00 +17°C° 0 mm 3 m/S 743 mmHg 62%
19:00 +14°C° 0 mm 3 m/S 743 mmHg 65%
20:00 +13°C° 0 mm 3 m/S 743 mmHg 68%
21:00 +13°C° 0 mm 3 m/S 743 mmHg 68%
22:00 +13°C° 0 mm 3 m/S 743 mmHg 67%
23:00 +12°C° 0 mm 3 m/S 743 mmHg 67%

übermorgen, 25 September, Freitag

Zeit Temperatur Niederschläge Wind Luftdruck Luftfeuchtigkeit
00:00 +12°C° 0 mm 3 m/S 743 mmHg 68%
01:00 +12°C° 0 mm 3 m/S 743 mmHg 68%
02:00 +11°C° 0 mm 3 m/S 743 mmHg 69%
03:00 +11°C° 0 mm 3 m/S 743 mmHg 68%
04:00 +11°C° 0 mm 3 m/S 743 mmHg 68%
05:00 +10°C° 0 mm 3 m/S 742 mmHg 67%
06:00 +11°C° 0 mm 3 m/S 742 mmHg 65%
07:00 +12°C° 0 mm 3 m/S 742 mmHg 63%
08:00 +13°C° 0 mm 3 m/S 742 mmHg 61%
09:00 +16°C° 0 mm 3 m/S 742 mmHg 58%
10:00 +18°C° 0 mm 3 m/S 742 mmHg 55%
11:00 +20°C° 0 mm 4 m/S 742 mmHg 52%
12:00 +21°C° 0 mm 4 m/S 742 mmHg 50%
13:00 +21°C° 0 mm 4 m/S 741 mmHg 49%
14:00 +22°C° 0 mm 4 m/S 741 mmHg 48%
15:00 +21°C° 0 mm 4 m/S 741 mmHg 52%
16:00 +20°C° 0 mm 4 m/S 741 mmHg 57%
17:00 +19°C° 0 mm 4 m/S 740 mmHg 62%
18:00 +18°C° 0 mm 4 m/S 740 mmHg 64%
19:00 +17°C° 0 mm 4 m/S 740 mmHg 67%
20:00 +15°C° 0 mm 4 m/S 740 mmHg 70%
21:00 +15°C° 0 mm 4 m/S 740 mmHg 71%
22:00 +15°C° 0 mm 4 m/S 740 mmHg 72%
23:00 +15°C° 0 mm 4 m/S 740 mmHg 73%

26 September, Samstag

Zeit Temperatur Niederschläge Wind Luftdruck Luftfeuchtigkeit
00:00 +15°C° 0 mm 4 m/S 740 mmHg 72%
01:00 +15°C° 0 mm 4 m/S 740 mmHg 70%
02:00 +14°C° 0 mm 4 m/S 740 mmHg 69%
03:00 +14°C° 0 mm 4 m/S 740 mmHg 70%
04:00 +14°C° 0 mm 4 m/S 740 mmHg 70%
05:00 +14°C° 0 mm 5 m/S 740 mmHg 71%
06:00 +14°C° 0 mm 5 m/S 740 mmHg 70%
07:00 +15°C° 0 mm 5 m/S 740 mmHg 70%
08:00 +16°C° 0 mm 5 m/S 740 mmHg 69%
09:00 +17°C° 0 mm 5 m/S 740 mmHg 65%
10:00 +20°C° 0 mm 6 m/S 740 mmHg 61%
11:00 +22°C° 0 mm 6 m/S 740 mmHg 56%
12:00 +22°C° 0 mm 6 m/S 741 mmHg 55%
13:00 +23°C° 0 mm 6 m/S 741 mmHg 54%
14:00 +24°C° 0 mm 6 m/S 741 mmHg 53%
15:00 +23°C° 0 mm 6 m/S 741 mmHg 55%
16:00 +22°C° 0 mm 5 m/S 741 mmHg 58%
17:00 +21°C° 0 mm 5 m/S 740 mmHg 60%
18:00 +20°C° 0 mm 5 m/S 741 mmHg 60%
19:00 +19°C° 0 mm 5 m/S 741 mmHg 61%
20:00 +17°C° 0 mm 6 m/S 741 mmHg 61%
21:00 +17°C° 0 mm 6 m/S 741 mmHg 60%
22:00 +17°C° 0 mm 6 m/S 741 mmHg 60%
23:00 +16°C° 0 mm 6 m/S 741 mmHg 60%

27 September, Sonntag

Zeit Temperatur Niederschläge Wind Luftdruck Luftfeuchtigkeit
00:00 +16°C° 0 mm 6 m/S 741 mmHg 60%
01:00 +15°C° 0 mm 6 m/S 741 mmHg 60%
02:00 +15°C° 0 mm 6 m/S 741 mmHg 60%
03:00 +14°C° 0 mm 6 m/S 741 mmHg 60%
04:00 +14°C° 0 mm 6 m/S 741 mmHg 60%
05:00 +14°C° 0 mm 6 m/S 741 mmHg 60%
06:00 +14°C° 0 mm 6 m/S 741 mmHg 59%
07:00 +14°C° 0 mm 6 m/S 741 mmHg 59%
08:00 +14°C° 0 mm 6 m/S 741 mmHg 59%
09:00 +16°C° 0 mm 7 m/S 741 mmHg 57%
10:00 +17°C° 0 mm 7 m/S 741 mmHg 55%
11:00 +20°C° 0 mm 8 m/S 741 mmHg 53%
12:00 +20°C° 0 mm 8 m/S 741 mmHg 52%
13:00 +21°C° 0 mm 8 m/S 741 mmHg 50%
14:00 +22°C° 0 mm 8 m/S 741 mmHg 49%
15:00 +21°C° 0 mm 7 m/S 741 mmHg 51%
16:00 +20°C° 0 mm 7 m/S 741 mmHg 54%
17:00 +19°C° 0 mm 6 m/S 741 mmHg 56%
18:00 +17°C° 0 mm 6 m/S 741 mmHg 54%
19:00 +17°C° 0 mm 6 m/S 741 mmHg 52%
20:00 +16°C° 0 mm 7 m/S 741 mmHg 50%
21:00 +16°C° 0 mm 6 m/S 741 mmHg 50%
22:00 +16°C° 0 mm 6 m/S 741 mmHg 50%
23:00 +15°C° 0 mm 6 m/S 740 mmHg 50%

28 September, Montag

Zeit Temperatur Niederschläge Wind Luftdruck Luftfeuchtigkeit
00:00 +15°C° 0 mm 6 m/S 740 mmHg 52%
01:00 +15°C° 0 mm 6 m/S 740 mmHg 54%
02:00 +14°C° 0 mm 6 m/S 740 mmHg 56%
03:00 +14°C° 0.3 mm 6 m/S 740 mmHg 65%
04:00 +12°C° 0.3 mm 7 m/S 740 mmHg 74%
05:00 +11°C° 0.3 mm 7 m/S 740 mmHg 82%
06:00 +12°C° 0.2 mm 7 m/S 740 mmHg 83%
07:00 +13°C° 0.2 mm 6 m/S 740 mmHg 84%
08:00 +13°C° 0.2 mm 6 m/S 741 mmHg 84%
09:00 +14°C° 0.1 mm 6 m/S 741 mmHg 83%
10:00 +15°C° 0.1 mm 6 m/S 741 mmHg 82%
11:00 +15°C° 0.1 mm 5 m/S 742 mmHg 81%
12:00 +15°C° 0.3 mm 5 m/S 742 mmHg 80%
13:00 +15°C° 0.3 mm 5 m/S 742 mmHg 78%
14:00 +15°C° 0.3 mm 5 m/S 743 mmHg 77%
15:00 +15°C° 0.1 mm 4 m/S 743 mmHg 78%
16:00 +14°C° 0.1 mm 3 m/S 743 mmHg 80%
17:00 +14°C° 0.1 mm 3 m/S 743 mmHg 81%
18:00 +13°C° 0 mm 3 m/S 744 mmHg 85%
19:00 +12°C° 0 mm 3 m/S 744 mmHg 88%
20:00 +11°C° 0 mm 3 m/S 744 mmHg 92%
21:00 +10°C° 0 mm 3 m/S 745 mmHg 92%
22:00 +10°C° 0 mm 3 m/S 745 mmHg 92%
23:00 +10°C° 0 mm 3 m/S 745 mmHg 93%
Mehr zeigen